This is the latest recevied weather packets stored in our database for station/object VR2HK-13. If no packets are shown the sender has not sent any weather packets the latest 10 day(s).
| Time | Temp. | Humidity | Pressure | Rain* | Wind** | Luminosity | Snow |
|---|---|---|---|---|---|---|---|
| 1777723764 | 25° C | 83% | 1010.2 hPa | 24.13 mm | - | - | - |
| 1777723605 | 25° C | 83% | 1010.2 hPa | 25.15 mm | - | - | - |
| 1777723464 | 25° C | 83% | 1010.2 hPa | 23.88 mm | - | - | - |
| 1777723295 | 25° C | 83% | 1010.3 hPa | 23.37 mm | - | - | - |
| 1777723164 | 25° C | 83% | 1010.4 hPa | 23.88 mm | - | - | - |
| 1777722985 | 25° C | 83% | 1010.2 hPa | 25.91 mm | - | - | - |
| 1777722864 | 25° C | 83% | 1010.3 hPa | 26.67 mm | - | - | - |
| 1777722676 | 25° C | 83% | 1010.2 hPa | 25.65 mm | - | - | - |
| 1777722563 | 25° C | 83% | 1010.2 hPa | 25.15 mm | - | - | - |
| 1777722364 | 25° C | 83% | 1010.2 hPa | 25.15 mm | - | - | - |
| 1777722264 | 25° C | 83% | 1010.1 hPa | 24.38 mm | - | - | - |
| 1777721964 | 25° C | 83% | 1010.1 hPa | 23.37 mm | - | - | - |
| 1777721746 | 25° C | 83% | 1010.1 hPa | 23.37 mm | - | - | - |
| 1777721664 | 25° C | 83% | 1010 hPa | 22.35 mm | - | - | - |
| 1777721434 | 25° C | 83% | 1009.8 hPa | 22.35 mm | - | - | - |
| 1777721363 | 25° C | 83% | 1009.8 hPa | 22.61 mm | - | - | - |
| 1777721064 | 25° C | 83% | 1009.8 hPa | 22.86 mm | - | - | - |
| 1777720815 | 25° C | 83% | 1009.9 hPa | 21.59 mm | - | - | - |
| 1777720764 | 25° C | 83% | 1009.9 hPa | 21.59 mm | - | - | - |
| 1777720505 | 25° C | 83% | 1010 hPa | 23.62 mm | - | - | - |
| 1777720464 | 25° C | 83% | 1010 hPa | 23.62 mm | - | - | - |
| 1777720195 | 25° C | 83% | 1010.1 hPa | 22.86 mm | - | - | - |
| 1777720163 | 25° C | 83% | 1010.1 hPa | 22.86 mm | - | - | - |
| 1777719885 | 25° C | 83% | 1010.1 hPa | 23.37 mm | - | - | - |
| 1777719864 | 25° C | 83% | 1010.1 hPa | 23.37 mm | - | - | - |
* Rain latest hour (hover to see other rain measurements)
** Current wind speed in m/s (hover to see current wind gust speed)